#timestamp,LO_Frequency,Hit,StdDev 
1657843215.3,286047005.7,N
1657843235.2,286047002.1,N
1657843255.9,286046999.8,N
1657843275.7,286046999.8,N
1657843295.6,286047000.7,N
1657843315.4,286047000.6,N
1657843335.3,286047003.4,N
1657843355.1,286047004.8,N
1657843356.0,286047004.8,N
1657843375.8,286047005.7,N
1657843395.7,286047008.6,N
1657843415.5,286047007.7,N
1657843435.3,286047011.9,Y
1657843455.2,286047011.6,P
1657843475.0,286047009.3,N
1657843475.9,286047009.3,N
1657843495.8,286047009.5,N
1657843515.6,286047007.8,N
1657843535.4,286047010.6,Y
1657843555.3,286047001.2,P
1657843575.1,286046999.6,N
1657843595.9,286046997.1,N
1657843615.7,286046997.4,N
1657843635.5,286046997.2,N
1657843655.4,286046997.7,N
1657843675.2,286046998.2,N
1657843695.0,286046999.0,N
1657843695.9,286046999.0,N
1657843715.8,286046998.2,N
1657843735.6,286046998.9,N
1657843755.5,286046996.9,N
1657843775.3,286046999.9,N
1657843795.1,286046999.4,N
1657843815.9,286047000.1,N
1657843835.7,286046999.6,N
1657843855.5,286046996.6,N
1657843875.4,286046996.6,N
1657843895.2,286046998.2,N
1657843915.1,286046998.1,N
1657843916.0,286046998.1,N
1657843935.8,286046998.6,N
1657843955.6,286046998.2,N
1657843975.5,286046998.7,N
1657843995.3,286047001.6,N
1657844015.1,286047003.5,N
1657844035.9,286047002.5,N
1657844055.7,286047000.2,N
1657844075.6,286046998.3,N
1657844095.4,286047001.0,N
1657844115.2,286046998.9,N
1657844135.1,286046999.5,N
1657844136.0,286046999.5,N
1657844155.8,286047001.2,N
1657844175.7,286046999.7,N
1657844195.5,286046996.5,N
1657844215.3,286046997.8,N
1657844235.2,286046997.8,N
1657844255.0,286046993.7,Y
1657844255.9,286046993.7,P
1657844275.8,286046995.2,N
1657844295.6,286046995.7,N
1657844315.4,286046997.8,N
1657844335.3,286046994.7,N
1657844355.1,286046996.7,N
1657844375.8,286046997.3,N
1657844395.7,286046998.0,N
1657844415.5,286046996.6,N
1657844435.4,286046995.8,N
1657844455.2,286046993.9,Y
1657844475.0,286046999.4,P
1657844475.9,286046999.4,N
1657844495.8,286046997.5,N
1657844515.6,286046996.6,N
1657844535.4,286046996.9,N
1657844555.3,286046998.6,N
1657844575.1,286047000.8,N
1657844595.9,286047000.7,N
1657844615.7,286046998.9,N
1657844635.5,286047001.0,N
1657844655.4,286047002.1,N
1657844675.2,286047000.2,N
1657844695.0,286046998.1,N
1657844695.9,286046998.1,N
1657844715.8,286046998.4,N
1657844735.6,286046999.1,N
1657844755.5,286046999.0,N
1657844775.3,286047001.0,N
1657844795.1,286046999.9,N
1657844815.9,286047001.9,N
1657844835.7,286047002.6,N
1657844855.5,286047003.6,N
1657844875.4,286047002.5,N
1657844895.2,286047002.6,N
1657844915.0,286047005.9,N
1657844915.9,286047005.9,N
1657844935.8,286047001.5,N
1657844955.6,286047002.1,N
1657844975.5,286047001.8,N
1657844995.3,286047006.7,N
1657845015.1,286047008.0,Y
1657845035.9,286047007.9,P
1657845055.7,286047009.0,N
1657845075.6,286047008.7,N
1657845095.4,286047007.2,N
1657845115.2,286047005.7,N
1657845135.1,286047007.8,N
1657845136.0,286047007.8,N
1657845155.8,286047009.3,Y
1657845175.6,286047001.9,P
1657845195.5,286047002.3,N
1657845215.3,286046998.7,N
1657845235.2,286046998.5,N
1657845255.9,286046998.3,N
1657845275.7,286046998.2,N
1657845295.6,286047000.8,N
1657845315.4,286047002.8,N
1657845335.2,286047005.3,N
1657845355.1,286047003.3,N
1657845356.0,286047003.3,N
1657845375.8,286047001.6,N
1657845395.7,286047002.7,N
1657845415.5,286046998.3,N
1657845435.3,286047000.8,N
1657845455.2,286047002.4,N
1657845475.9,286046999.8,N
1657845495.7,286047001.7,N
1657845515.6,286047001.9,N
1657845535.4,286047001.7,N
1657845555.2,286046999.9,N
1657845575.1,286047002.2,N
1657845576.0,286047002.2,N
1657845595.8,286047000.5,N
1657845615.7,286047001.0,N
1657845635.5,286047000.3,N
1657845655.3,286047002.4,N
1657845675.2,286047004.2,N
1657845695.0,286047005.9,N
1657845695.9,286047005.9,N
1657845715.8,286047004.6,N
1657845735.6,286047005.5,N
1657845755.4,286047005.4,N
1657845775.3,286047003.2,N
1657845795.1,286047005.0,N
1657845815.8,286047004.1,N
1657845835.7,286047003.0,N
1657845855.5,286047006.5,Y
1657845875.4,286047003.0,P
1657845895.2,286047006.0,P
1657845915.0,286047004.7,P
1657845915.9,286047004.7,Y
1657845935.8,286047002.6,P
1657845955.6,286047001.0,N
1657845975.4,286046998.8,N
1657845995.3,286046999.0,N
1657846015.1,286047000.0,N
1657846035.9,286047000.5,N
1657846055.7,286046999.9,N
1657846075.5,286047002.4,N
1657846095.4,286047002.8,N
1657846115.2,286047002.5,N
1657846135.0,286047001.5,N
1657846135.9,286047001.5,N
1657846155.8,286047004.7,Y
1657846175.6,286047003.9,P
1657846195.5,286047002.5,N
1657846215.3,286047000.4,N
1657846235.1,286047000.4,N
1657846255.9,286047002.6,N
1657846275.7,286047000.1,N
1657846295.5,286046998.5,N
1657846315.4,286046999.3,N
1657846335.2,286046997.3,N
1657846355.1,286046995.8,N
1657846356.0,286046995.8,N
1657846375.8,286046995.1,N
1657846395.6,286046999.0,N
1657846415.5,286046999.0,N
1657846435.3,286046999.4,N
1657846455.1,286047001.1,N
1657846475.9,286047000.7,N
1657846495.7,286047002.3,N
1657846515.6,286047000.1,N
1657846535.4,286047002.2,N
1657846555.2,286047003.5,N
1657846575.1,286047003.5,N
1657846576.0,286047003.5,N
1657846595.8,286047001.9,N
1657846615.6,286047006.0,N
1657846635.5,286047004.9,N
1657846655.3,286047003.7,N
1657846675.2,286047003.7,N
1657846695.9,286047006.0,N
1657846715.7,286047005.0,N
1657846735.6,286047008.7,N
1657846755.4,286047009.6,Y
1657846775.2,286047006.2,P
1657846795.1,286047007.0,N
1657846796.0,286047007.0,N
